Time,TemperatureF,DewpointF,PressureIn,WindDirection,WindDirectionDegrees,WindSpeedMPH,WindSpeedGustMPH,Humidity,HourlyPrecipIn,Conditions,Clouds,dailyrainin,SoftwareType,DateUTC
2013-11-01 00:04:00,73.2,65.6,29.83,North,0,0.7,1.6,77,0.00,,,0.00,pywws,2013-10-31 14:04:00,
2013-11-01 00:15:00,73.4,65.7,29.82,NE,45,0.7,1.6,77,0.00,,,0.00,pywws,2013-10-31 14:15:00,
2013-11-01 00:25:00,73.0,65.4,29.82,SW,225,0.0,0.0,77,0.00,,,0.00,pywws,2013-10-31 14:25:00,
2013-11-01 00:35:00,72.7,65.0,29.82,SW,225,0.0,0.0,77,0.00,,,0.00,pywws,2013-10-31 14:35:00,
2013-11-01 00:45:00,72.5,65.6,29.83,SW,225,0.7,1.6,79,0.00,,,0.00,pywws,2013-10-31 14:45:00,
2013-11-01 00:55:00,72.5,66.0,29.82,SW,225,0.0,0.0,80,0.00,,,0.00,pywws,2013-10-31 14:55:00,
2013-11-01 01:04:00,72.5,66.0,29.82,SW,225,0.0,0.0,80,0.00,,,0.00,pywws,2013-10-31 15:04:00,
2013-11-01 01:15:00,72.7,65.8,29.81,South,180,0.0,0.0,79,0.00,,,0.00,pywws,2013-10-31 15:15:00,
2013-11-01 01:25:00,72.9,66.0,29.81,SE,135,0.0,0.0,79,0.00,,,0.00,pywws,2013-10-31 15:25:00,
2013-11-01 01:34:00,72.9,66.0,29.81,SE,135,0.0,0.7,79,0.00,,,0.00,pywws,2013-10-31 15:34:00,
2013-11-01 01:45:00,72.7,65.8,29.81,SE,135,0.0,0.7,79,0.00,,,0.00,pywws,2013-10-31 15:45:00,
2013-11-01 01:55:00,73.0,66.1,29.81,SE,135,0.0,0.0,79,0.00,,,0.00,pywws,2013-10-31 15:55:00,
2013-11-01 02:04:00,72.9,66.0,29.81,SE,135,0.0,0.7,79,0.00,,,0.00,pywws,2013-10-31 16:04:00,
2013-11-01 02:15:00,72.5,65.6,29.80,SE,135,0.0,0.0,79,0.00,,,0.00,pywws,2013-10-31 16:15:00,
2013-11-01 02:25:00,72.5,66.0,29.80,SW,225,0.0,0.0,80,0.00,,,0.00,pywws,2013-10-31 16:25:00,
2013-11-01 02:35:00,72.3,66.2,29.80,SW,225,0.7,1.6,81,0.00,,,0.00,pywws,2013-10-31 16:35:00,
2013-11-01 02:45:00,72.1,66.0,29.79,SE,135,0.0,0.0,81,0.00,,,0.00,pywws,2013-10-31 16:45:00,
2013-11-01 02:55:00,72.1,66.0,29.79,East,90,0.0,0.0,81,0.00,,,0.00,pywws,2013-10-31 16:55:00,
2013-11-01 03:04:00,72.1,66.0,29.79,South,180,0.0,0.0,81,0.00,,,0.00,pywws,2013-10-31 17:04:00,
2013-11-01 03:15:00,72.0,65.8,29.79,SW,225,0.0,0.7,81,0.00,,,0.00,pywws,2013-10-31 17:15:00,
2013-11-01 03:25:00,72.0,65.8,29.79,SW,225,0.0,0.7,81,0.00,,,0.00,pywws,2013-10-31 17:25:00,
2013-11-01 03:35:00,71.8,65.6,29.79,SW,225,0.0,0.0,81,0.00,,,0.00,pywws,2013-10-31 17:35:00,
2013-11-01 03:45:00,71.6,65.8,29.79,SW,225,0.0,0.0,82,0.00,,,0.00,pywws,2013-10-31 17:45:00,
2013-11-01 03:54:00,71.4,66.0,29.79,SW,225,0.0,0.0,83,0.00,,,0.00,pywws,2013-10-31 17:54:00,
2013-11-01 04:04:00,71.2,65.8,29.80,SW,225,0.0,0.0,83,0.00,,,0.00,pywws,2013-10-31 18:04:00,
2013-11-01 04:14:00,71.1,66.0,29.80,SW,225,0.0,0.0,84,0.00,,,0.00,pywws,2013-10-31 18:14:00,
2013-11-01 04:25:00,71.1,66.0,29.80,SW,225,0.0,0.0,84,0.00,,,0.00,pywws,2013-10-31 18:25:00,
2013-11-01 04:34:00,71.1,66.0,29.81,SW,225,0.0,0.7,84,0.00,,,0.00,pywws,2013-10-31 18:34:00,
2013-11-01 04:45:00,70.9,65.8,29.81,SW,225,0.7,1.6,84,0.00,,,0.00,pywws,2013-10-31 18:45:00,
2013-11-01 04:55:00,70.7,66.0,29.81,SW,225,0.0,0.0,85,0.00,,,0.00,pywws,2013-10-31 18:55:00,
2013-11-01 05:04:00,70.9,66.1,29.82,SW,225,0.0,0.0,85,0.00,,,0.00,pywws,2013-10-31 19:04:00,
2013-11-01 05:15:00,70.9,66.1,29.82,SW,225,0.0,0.0,85,0.00,,,0.00,pywws,2013-10-31 19:15:00,
2013-11-01 05:25:00,71.1,66.3,29.82,SW,225,0.0,0.0,85,0.00,,,0.00,pywws,2013-10-31 19:25:00,
2013-11-01 05:34:00,71.2,66.5,29.82,SW,225,0.0,0.0,85,0.00,,,0.00,pywws,2013-10-31 19:34:00,
2013-11-01 05:45:00,71.4,66.7,29.83,SE,135,0.0,0.0,85,0.00,,,0.00,pywws,2013-10-31 19:45:00,
2013-11-01 05:55:00,71.6,66.2,29.83,SE,135,0.0,0.0,83,0.00,,,0.00,pywws,2013-10-31 19:55:00,
2013-11-01 06:04:00,72.0,66.5,29.83,NE,45,1.6,2.2,83,0.00,,,0.00,pywws,2013-10-31 20:04:00,
2013-11-01 06:14:00,72.1,66.7,29.83,South,180,0.0,0.0,83,0.00,,,0.00,pywws,2013-10-31 20:14:00,
2013-11-01 06:15:00,72.3,66.9,29.83,South,180,0.0,0.0,83,0.00,,,0.00,pywws,2013-10-31 20:15:00,
2013-11-01 06:25:00,72.3,66.5,29.84,SW,225,0.0,0.0,82,0.00,,,0.00,pywws,2013-10-31 20:25:00,
2013-11-01 06:34:00,72.5,66.7,29.84,SW,225,0.0,0.0,82,0.00,,,0.00,pywws,2013-10-31 20:34:00,
2013-11-01 06:45:00,73.2,67.0,29.84,SW,225,0.0,0.0,81,0.00,,,0.00,pywws,2013-10-31 20:45:00,
2013-11-01 06:55:00,74.7,68.1,29.85,NE,45,1.6,3.1,80,0.00,,,0.00,pywws,2013-10-31 20:55:00,
2013-11-01 07:04:00,75.9,67.8,29.85,North,0,1.6,3.1,76,0.00,,,0.00,pywws,2013-10-31 21:04:00,
2013-11-01 07:15:00,78.4,67.8,29.85,North,0,1.6,3.8,70,0.00,,,0.00,pywws,2013-10-31 21:15:00,
2013-11-01 07:25:00,80.2,67.4,29.85,North,0,3.8,5.4,65,0.00,,,0.00,pywws,2013-10-31 21:25:00,
2013-11-01 07:35:00,80.4,67.6,29.86,NE,45,3.8,6.0,65,0.00,,,0.00,pywws,2013-10-31 21:35:00,
2013-11-01 07:45:00,82.0,67.7,29.86,SE,135,0.7,1.6,62,0.00,,,0.00,pywws,2013-10-31 21:45:00,
2013-11-01 07:55:00,81.5,67.7,29.86,North,0,0.7,1.6,63,0.00,,,0.00,pywws,2013-10-31 21:55:00,
2013-11-01 08:04:00,82.8,68.9,29.86,South,180,0.0,0.7,63,0.00,,,0.00,pywws,2013-10-31 22:04:00,
2013-11-01 08:15:00,85.6,69.1,29.87,NW,315,0.0,0.7,58,0.00,,,0.00,pywws,2013-10-31 22:15:00,
2013-11-01 08:25:00,87.3,69.1,29.86,SW,225,0.7,1.6,55,0.00,,,0.00,pywws,2013-10-31 22:25:00,
2013-11-01 08:35:00,86.7,68.1,29.86,North,0,1.6,3.1,54,0.00,,,0.00,pywws,2013-10-31 22:35:00,
2013-11-01 08:45:00,88.5,69.2,29.86,SE,135,0.7,2.2,53,0.00,,,0.00,pywws,2013-10-31 22:45:00,
2013-11-01 08:55:00,89.2,69.3,29.86,NNE,22,0.7,1.6,52,0.00,,,0.00,pywws,2013-10-31 22:55:00,
2013-11-01 09:04:00,89.8,68.6,29.86,North,0,1.6,3.1,50,0.00,,,0.00,pywws,2013-10-31 23:04:00,
2013-11-01 09:15:00,88.0,68.1,29.86,North,0,2.2,3.8,52,0.00,,,0.00,pywws,2013-10-31 23:15:00,
2013-11-01 09:25:00,89.2,69.3,29.85,NE,45,2.2,5.4,52,0.00,,,0.00,pywws,2013-10-31 23:25:00,
2013-11-01 09:35:00,88.3,68.4,29.85,East,90,0.0,0.7,52,0.00,,,0.00,pywws,2013-10-31 23:35:00,
2013-11-01 09:45:00,86.9,68.2,29.86,North,0,2.2,5.4,54,0.00,,,0.00,pywws,2013-10-31 23:45:00,
2013-11-01 09:55:00,86.9,68.8,29.85,NE,45,1.6,2.2,55,0.00,,,0.00,pywws,2013-10-31 23:55:00,
2013-11-01 10:04:00,87.6,68.9,29.85,NE,45,0.7,1.6,54,0.00,,,0.00,pywws,2013-11-01 00:04:00,
2013-11-01 10:15:00,87.4,69.3,29.84,East,90,0.0,0.7,55,0.00,,,0.00,pywws,2013-11-01 00:15:00,
2013-11-01 10:25:00,87.3,68.0,29.85,NE,45,0.7,1.6,53,0.00,,,0.00,pywws,2013-11-01 00:25:00,
2013-11-01 10:35:00,87.6,68.9,29.84,NE,45,4.5,5.4,54,0.00,,,0.00,pywws,2013-11-01 00:35:00,
2013-11-01 10:45:00,90.5,69.3,29.83,NE,45,3.8,6.0,50,0.00,,,0.00,pywws,2013-11-01 00:45:00,
2013-11-01 10:55:00,90.7,69.4,29.83,SW,225,1.6,3.8,50,0.00,,,0.00,pywws,2013-11-01 00:55:00,
2013-11-01 11:04:00,88.0,68.1,29.83,North,0,1.6,3.8,52,0.00,,,0.00,pywws,2013-11-01 01:04:00,
2013-11-01 11:15:00,89.1,69.1,29.83,NE,45,2.2,3.8,52,0.00,,,0.00,pywws,2013-11-01 01:15:00,
2013-11-01 11:25:00,90.1,68.9,29.82,NE,45,0.7,2.2,50,0.00,,,0.00,pywws,2013-11-01 01:25:00,
2013-11-01 11:35:00,88.9,68.9,29.82,NE,45,1.6,3.8,52,0.00,,,0.00,pywws,2013-11-01 01:35:00,
2013-11-01 11:45:00,88.2,68.8,29.81,North,0,3.8,5.4,53,0.00,,,0.00,pywws,2013-11-01 01:45:00,
2013-11-01 11:55:00,89.6,69.6,29.80,NW,315,1.6,2.2,52,0.00,,,0.00,pywws,2013-11-01 01:55:00,
2013-11-01 12:04:00,91.2,71.1,29.80,North,0,2.2,4.5,52,0.00,,,0.00,pywws,2013-11-01 02:04:00,
2013-11-01 12:15:00,92.8,70.8,29.80,North,0,0.7,2.2,49,0.00,,,0.00,pywws,2013-11-01 02:15:00,
2013-11-01 12:25:00,92.3,70.9,29.80,South,180,0.7,2.2,50,0.00,,,0.00,pywws,2013-11-01 02:25:00,
2013-11-01 12:35:00,91.2,69.9,29.79,NW,315,1.6,2.2,50,0.00,,,0.00,pywws,2013-11-01 02:35:00,
2013-11-01 12:45:00,89.4,70.0,29.80,East,90,1.6,2.2,53,0.00,,,0.00,pywws,2013-11-01 02:45:00,
2013-11-01 12:55:00,90.7,70.0,29.79,East,90,3.8,4.5,51,0.00,,,0.00,pywws,2013-11-01 02:55:00,
2013-11-01 13:04:00,89.1,69.7,29.79,NE,45,0.7,3.8,53,0.00,,,0.00,pywws,2013-11-01 03:04:00,
2013-11-01 13:15:00,91.8,69.8,29.79,SE,135,3.8,7.6,49,0.00,,,0.00,pywws,2013-11-01 03:15:00,
2013-11-01 13:25:00,91.8,69.8,29.78,NW,315,4.5,6.0,49,0.00,,,0.00,pywws,2013-11-01 03:25:00,
2013-11-01 13:35:00,89.6,69.0,29.78,SE,135,3.8,5.4,51,0.00,,,0.00,pywws,2013-11-01 03:35:00,
2013-11-01 13:45:00,90.9,69.6,29.78,North,0,2.2,4.5,50,0.00,,,0.00,pywws,2013-11-01 03:45:00,
2013-11-01 13:55:00,88.5,69.2,29.78,South,180,0.7,1.6,53,0.00,,,0.00,pywws,2013-11-01 03:55:00,
2013-11-01 14:04:00,88.5,68.6,29.78,West,270,1.6,3.1,52,0.00,,,0.00,pywws,2013-11-01 04:04:00,
2013-11-01 14:05:00,88.3,68.4,29.78,East,90,2.2,3.8,52,0.00,,,0.00,pywws,2013-11-01 04:05:00,
2013-11-01 14:06:00,88.7,68.8,29.78,West,270,1.6,3.8,52,0.00,,,0.00,pywws,2013-11-01 04:06:00,
2013-11-01 14:07:00,88.9,69.5,29.78,ESE,112,2.2,4.5,53,0.00,,,0.00,pywws,2013-11-01 04:07:00,
2013-11-01 14:15:00,89.6,69.0,29.78,SE,135,1.6,3.1,51,0.00,,,0.00,pywws,2013-11-01 04:15:00,
2013-11-01 14:17:00,90.1,69.5,29.78,NE,45,1.6,3.1,51,0.00,,,0.00,pywws,2013-11-01 04:17:00,
2013-11-01 14:25:00,90.3,68.5,29.78,South,180,0.7,1.6,49,0.00,,,0.00,pywws,2013-11-01 04:25:00,
2013-11-01 14:35:00,90.7,69.4,29.77,South,180,3.8,6.9,50,0.00,,,0.00,pywws,2013-11-01 04:35:00,
2013-11-01 14:45:00,90.1,68.9,29.77,South,180,1.6,3.1,50,0.00,,,0.00,pywws,2013-11-01 04:45:00,
2013-11-01 14:55:00,90.9,69.6,29.77,South,180,1.6,3.1,50,0.00,,,0.00,pywws,2013-11-01 04:55:00,
2013-11-01 15:04:00,88.2,68.8,29.77,NE,45,1.6,3.1,53,0.00,,,0.00,pywws,2013-11-01 05:04:00,
2013-11-01 15:15:00,86.0,68.4,29.77,SE,135,1.6,2.2,56,0.00,,,0.00,pywws,2013-11-01 05:15:00,
2013-11-01 15:25:00,86.4,68.8,29.76,NNE,22,0.7,2.2,56,0.00,,,0.00,pywws,2013-11-01 05:25:00,
2013-11-01 15:35:00,86.0,69.0,29.76,North,0,2.2,5.4,57,0.00,,,0.00,pywws,2013-11-01 05:35:00,
2013-11-01 15:45:00,85.1,68.1,29.76,NE,45,1.6,3.1,57,0.00,,,0.00,pywws,2013-11-01 05:45:00,
2013-11-01 15:46:00,84.7,68.8,29.76,East,90,0.7,1.6,59,0.00,,,0.00,pywws,2013-11-01 05:46:00,
2013-11-01 15:55:00,84.2,68.3,29.77,SE,135,0.7,2.2,59,0.00,,,0.00,pywws,2013-11-01 05:55:00,
2013-11-01 16:04:00,83.8,68.9,29.76,East,90,0.7,1.6,61,0.00,,,0.00,pywws,2013-11-01 06:04:00,
2013-11-01 16:15:00,83.5,68.6,29.76,North,0,3.1,4.5,61,0.00,,,0.00,pywws,2013-11-01 06:15:00,
2013-11-01 16:25:00,82.4,68.5,29.76,SE,135,2.2,3.1,63,0.00,,,0.00,pywws,2013-11-01 06:25:00,
2013-11-01 16:35:00,82.2,68.8,29.77,East,90,0.7,1.6,64,0.00,,,0.00,pywws,2013-11-01 06:35:00,
2013-11-01 16:45:00,82.4,68.5,29.78,East,90,1.6,2.2,63,0.00,,,0.00,pywws,2013-11-01 06:45:00,
2013-11-01 16:55:00,82.2,68.3,29.78,SE,135,0.7,1.6,63,0.00,,,0.00,pywws,2013-11-01 06:55:00,
2013-11-01 17:04:00,82.0,69.1,29.78,NE,45,0.7,1.6,65,0.00,,,0.00,pywws,2013-11-01 07:04:00,
2013-11-01 17:15:00,81.5,68.6,29.78,East,90,1.6,3.1,65,0.00,,,0.00,pywws,2013-11-01 07:15:00,
2013-11-01 17:25:00,81.3,68.9,29.78,NE,45,0.0,0.7,66,0.00,,,0.00,pywws,2013-11-01 07:25:00,
2013-11-01 17:35:00,81.1,68.7,29.78,NE,45,0.0,1.6,66,0.00,,,0.00,pywws,2013-11-01 07:35:00,
2013-11-01 17:45:00,81.1,69.1,29.79,SE,135,0.7,1.6,67,0.00,,,0.00,pywws,2013-11-01 07:45:00,
2013-11-01 17:55:00,80.8,69.2,29.79,North,0,0.0,1.6,68,0.00,,,0.00,pywws,2013-11-01 07:55:00,
2013-11-01 18:04:00,80.8,69.2,29.79,NE,45,1.6,3.8,68,0.00,,,0.00,pywws,2013-11-01 08:04:00,
2013-11-01 18:15:00,80.6,69.0,29.79,NW,315,0.7,2.2,68,0.00,,,0.00,pywws,2013-11-01 08:15:00,
2013-11-01 18:25:00,80.4,69.3,29.79,SW,225,0.7,1.6,69,0.00,,,0.00,pywws,2013-11-01 08:25:00,
2013-11-01 18:35:00,80.2,70.0,29.78,West,270,0.7,1.6,71,0.00,,,0.00,pywws,2013-11-01 08:35:00,
2013-11-01 18:45:00,79.9,69.6,29.79,West,270,0.0,0.0,71,0.00,,,0.00,pywws,2013-11-01 08:45:00,
2013-11-01 18:55:00,79.7,69.9,29.79,North,0,1.6,2.2,72,0.00,,,0.00,pywws,2013-11-01 08:55:00,
2013-11-01 19:04:00,79.5,69.7,29.79,NE,45,0.0,1.6,72,0.00,,,0.00,pywws,2013-11-01 09:04:00,
2013-11-01 19:15:00,79.5,69.7,29.79,SW,225,0.0,0.7,72,0.00,,,0.00,pywws,2013-11-01 09:15:00,
2013-11-01 19:25:00,79.2,69.7,29.80,SW,225,0.0,0.0,73,0.00,,,0.00,pywws,2013-11-01 09:25:00,
2013-11-01 19:35:00,79.0,69.6,29.80,East,90,0.0,0.7,73,0.00,,,0.00,pywws,2013-11-01 09:35:00,
2013-11-01 19:45:00,79.2,69.3,29.81,South,180,0.0,1.6,72,0.00,,,0.00,pywws,2013-11-01 09:45:00,
2013-11-01 19:55:00,79.2,69.3,29.81,East,90,0.7,1.6,72,0.00,,,0.00,pywws,2013-11-01 09:55:00,
2013-11-01 20:04:00,79.2,69.3,29.82,ENE,68,0.0,0.0,72,0.00,,,0.00,pywws,2013-11-01 10:04:00,
2013-11-01 20:15:00,79.2,69.3,29.82,NE,45,2.2,3.1,72,0.00,,,0.00,pywws,2013-11-01 10:15:00,
2013-11-01 20:25:00,79.3,69.5,29.82,SW,225,0.0,0.0,72,0.00,,,0.00,pywws,2013-11-01 10:25:00,
2013-11-01 20:35:00,79.0,69.6,29.82,SW,225,0.0,0.0,73,0.00,,,0.00,pywws,2013-11-01 10:35:00,
2013-11-01 20:45:00,78.6,69.6,29.83,SW,225,0.0,0.0,74,0.00,,,0.00,pywws,2013-11-01 10:45:00,
2013-11-01 20:55:00,78.1,69.9,29.83,South,180,0.0,0.7,76,0.02,,,0.02,pywws,2013-11-01 10:55:00,
2013-11-01 21:04:00,77.4,70.7,29.84,South,180,0.0,0.7,80,0.02,,,0.02,pywws,2013-11-01 11:04:00,
2013-11-01 21:15:00,76.8,71.6,29.84,SW,225,0.7,1.6,84,0.02,,,0.02,pywws,2013-11-01 11:15:00,
2013-11-01 21:25:00,76.6,71.8,29.85,SW,225,0.0,0.7,85,0.02,,,0.02,pywws,2013-11-01 11:25:00,
2013-11-01 21:34:00,76.5,71.9,29.85,South,180,0.7,1.6,86,0.02,,,0.02,pywws,2013-11-01 11:34:00,
2013-11-01 21:45:00,76.1,71.9,29.85,SE,135,0.0,0.7,87,0.02,,,0.02,pywws,2013-11-01 11:45:00,
2013-11-01 21:55:00,76.1,71.9,29.86,SW,225,0.0,0.7,87,0.00,,,0.02,pywws,2013-11-01 11:55:00,
2013-11-01 22:04:00,76.1,71.9,29.85,SW,225,0.0,0.7,87,0.00,,,0.02,pywws,2013-11-01 12:04:00,
2013-11-01 22:15:00,76.1,71.9,29.85,SW,225,0.0,0.7,87,0.00,,,0.02,pywws,2013-11-01 12:15:00,
2013-11-01 22:25:00,76.5,72.3,29.85,SE,135,1.6,2.2,87,0.00,,,0.02,pywws,2013-11-01 12:25:00,
2013-11-01 22:35:00,77.0,72.1,29.86,South,180,0.0,0.7,85,0.00,,,0.02,pywws,2013-11-01 12:35:00,
2013-11-01 22:45:00,76.6,71.8,29.85,SW,225,0.0,0.0,85,0.00,,,0.02,pywws,2013-11-01 12:45:00,
2013-11-01 22:55:00,77.0,71.1,29.86,East,90,0.0,0.7,82,0.00,,,0.02,pywws,2013-11-01 12:55:00,
2013-11-01 23:04:00,77.2,70.9,29.85,West,270,0.0,0.7,81,0.00,,,0.02,pywws,2013-11-01 13:04:00,
2013-11-01 23:15:00,76.8,70.2,29.86,SW,225,2.2,3.8,80,0.00,,,0.02,pywws,2013-11-01 13:15:00,
2013-11-01 23:25:00,76.8,69.8,29.85,SW,225,0.7,2.2,79,0.00,,,0.02,pywws,2013-11-01 13:25:00,
2013-11-01 23:35:00,76.3,70.0,29.86,NW,315,0.0,1.6,81,0.02,,,0.05,pywws,2013-11-01 13:35:00,
2013-11-01 23:45:00,75.2,69.3,29.85,SW,225,1.6,3.1,82,0.11,,,0.13,pywws,2013-11-01 13:45:00,
2013-11-01 23:55:00,74.3,69.8,29.85,SW,225,3.8,9.8,86,0.28,,,0.31,pywws,2013-11-01 13:55:00,